Torna al catalogo

CHANG'E 5

AttivoScienzaHCO
NORAD 47097·PAYLOAD·🇨🇳 China

Lanciato Nov 23, 2020 da Wenchang Space Launch Site

Loading…

TLE

ObsoletoSource: Space-Track

Epoca: Feb 22, 2024, 06:52 UTC

1 47097U 20087A   24053.28652788 -.00013071  00000-0  00000+0 0  9996
2 47097  30.7677  10.7618 3781869 349.8514 126.8236  0.04182964   639

Traccia CHANG'E 5 in tempo reale con AllMySat

Download on the App Store